Estación de Curicó

Ultimos registro cada 15 minutos 75
Estación Fecha / Hora Temperatura Humedad Lluvia Velocidad Dirección Radiación Presion
75 Curicó 02-05-2026 18:30 8,3 83,3 0 0 180 0,6 990,4
74 Curicó 02-05-2026 18:15 9,5 80 0 0 180 0,6 990
73 Curicó 02-05-2026 18:00 11,4 75,5 0 0 180 1,9 989,7
72 Curicó 02-05-2026 17:45 13,8 68,7 0 0 180 9,4 989,6
71 Curicó 02-05-2026 17:30 16,1 62,8 0 0 175 24,4 989,7
70 Curicó 02-05-2026 17:15 17,6 58,2 0 0 181 71,9 989,8
69 Curicó 02-05-2026 17:00 18,1 57,3 0 0,3 194 119,4 989,8
68 Curicó 02-05-2026 16:45 18,4 55,9 0 0,3 177 154,4 989,7
67 Curicó 02-05-2026 16:30 18,8 53,3 0 0,3 185 189,4 989,7
66 Curicó 02-05-2026 16:15 19 52,1 0 0,7 181 225,6 989,5
65 Curicó 02-05-2026 16:00 19,2 53,8 0 0,3 183 260,6 989,4
64 Curicó 02-05-2026 15:45 19,4 58,3 0 0,3 239 294,4 989,4
63 Curicó 02-05-2026 15:30 18,9 59,3 0 0,7 246 326,9 989,3
62 Curicó 02-05-2026 15:15 18,6 59,4 0 0,3 254 358,1 989,3
61 Curicó 02-05-2026 15:00 18 61,3 0 0,7 194 388,1 989,3
60 Curicó 02-05-2026 14:45 18,1 63,7 0 0,3 160 418,1 988,9
59 Curicó 02-05-2026 14:30 17,4 62,4 0 0,3 234 445,6 989,1
58 Curicó 02-05-2026 14:15 16,4 64,7 0 0,7 219 468,1 989,2
57 Curicó 02-05-2026 14:00 15,5 66,9 0 0,7 197 486,9 989,5
56 Curicó 02-05-2026 13:45 15,6 69,5 0 0,7 153 503,1 989,6
55 Curicó 02-05-2026 13:30 14,7 69,9 0 0,7 156 520,6 989,7
54 Curicó 02-05-2026 13:15 15,2 70,5 0 0,3 168 529,4 989,9
53 Curicó 02-05-2026 13:00 14,1 72,8 0 1 181 536,9 990,1
52 Curicó 02-05-2026 12:45 13,2 74,1 0 1 164 539,4 990,5
51 Curicó 02-05-2026 12:30 13,1 74,2 0 1 191 541,9 990,4
50 Curicó 02-05-2026 12:15 12,9 75,8 0 1 157 543,1 990,8
49 Curicó 02-05-2026 12:00 11,9 76,3 0 1 157 533,1 990,9
48 Curicó 02-05-2026 11:45 12,3 77,6 0 1 154 525,6 991
47 Curicó 02-05-2026 11:30 11,1 78 0 1,3 145 510,6 991,4
46 Curicó 02-05-2026 11:15 10,9 79 0 1 173 498,1 991,5
45 Curicó 02-05-2026 11:00 10,6 79,7 0 1 152 479,4 991,7
44 Curicó 02-05-2026 10:45 10,2 80,5 0 1,3 167 458,1 991,9
43 Curicó 02-05-2026 10:30 10 81 0 1 199 431,9 992
42 Curicó 02-05-2026 10:15 9,8 83 0 1 195 405,6 992,3
41 Curicó 02-05-2026 10:00 9,2 84,8 0 1,3 202 375,6 992,4
40 Curicó 02-05-2026 09:45 8,7 87,9 0 1,3 202 343,1 992,8
39 Curicó 02-05-2026 09:30 8,6 92,4 0 1 170 310,6 993,2
38 Curicó 02-05-2026 09:15 7,5 94,2 0 1 166 273,1 993,2
37 Curicó 02-05-2026 09:00 7,5 95,2 0 0,7 166 245,6 993,2
36 Curicó 02-05-2026 08:45 6,9 96 0 0,7 185 211,9 993,3
35 Curicó 02-05-2026 08:30 6,3 97 0 0,7 192 153,1 993,4
34 Curicó 02-05-2026 08:15 5,8 97,3 0 0,7 190 98,1 993,3
33 Curicó 02-05-2026 08:00 5,2 97,5 0 0,7 184 40,6 993,4
32 Curicó 02-05-2026 07:45 5,1 97,4 0 0,7 174 18,1 993,3
31 Curicó 02-05-2026 07:30 5,1 97,4 0 0,7 188 3,1 993,3
30 Curicó 02-05-2026 07:15 5,1 97,2 0 0,3 184 0,6 993,1
29 Curicó 02-05-2026 07:00 5,1 97,1 0 0,3 164 0,6 993
28 Curicó 02-05-2026 06:45 4,9 97 0 0 161 0,6 993,2
27 Curicó 02-05-2026 06:30 4,4 96,7 0 0 160 0,6 993,2
26 Curicó 02-05-2026 06:15 4,8 96,7 0 0 174 0,6 993,2
25 Curicó 02-05-2026 06:00 5 96,6 0 0 177 0,6 993,1
24 Curicó 02-05-2026 05:45 5,3 96,6 0 0,3 173 0,6 993,3
23 Curicó 02-05-2026 05:30 5,5 96,4 0 0,3 194 0,6 993,4
22 Curicó 02-05-2026 05:15 5,7 96,6 0 0,3 197 0,6 993,4
21 Curicó 02-05-2026 05:00 5,9 96,5 0 0,3 178 0,6 993,6
20 Curicó 02-05-2026 04:45 6 96,7 0 0,3 163 0,6 993,6
19 Curicó 02-05-2026 04:30 6 96,8 0 0,7 174 0,6 993,7
18 Curicó 02-05-2026 04:15 6,3 96,8 0 0,7 170 0,6 993,9
17 Curicó 02-05-2026 04:00 6,5 97,1 0 0,7 180 0,6 994
16 Curicó 02-05-2026 03:45 6,4 97,4 0 0,3 197 0,6 994,2
15 Curicó 02-05-2026 03:30 6,4 97,5 0 0,3 175 0,6 994,2
14 Curicó 02-05-2026 03:15 6,3 97,5 0 0 175 0,6 994,3
13 Curicó 02-05-2026 03:00 6,4 97,4 0 0 178 0,6 994,4
12 Curicó 02-05-2026 02:45 6,4 97,5 0 0 160 0,6 994,6
11 Curicó 02-05-2026 02:30 5,5 97,7 0 0 160 0,6 994,6
10 Curicó 02-05-2026 02:15 4,5 97,2 0 0 160 0,6 994,8
9 Curicó 02-05-2026 02:00 5,4 97,4 0 0 160 0,6 994,8
8 Curicó 02-05-2026 01:45 5,9 96,7 0 0 160 0,6 995,1
7 Curicó 02-05-2026 01:30 6,3 97 0 0 181 0,6 995
6 Curicó 02-05-2026 01:15 5,5 97 0 0 185 0,6 995,2
5 Curicó 02-05-2026 01:00 5,4 96,6 0 0 185 0,6 995,6
4 Curicó 02-05-2026 00:45 6,3 96,6 0 0 185 0,6 995,8
3 Curicó 02-05-2026 00:30 6,1 96,8 0 0 199 0,6 995,9
2 Curicó 02-05-2026 00:15 5,5 96,7 0 0 201 0,6 996
1 Curicó 02-05-2026 00:00 4,9 96,2 0 0 201 0,6 996,4